User: anonymous   Login
Location: Huntington Beach
(33.6600°N, 117.9980°W)
Time: 12:07:17
(UTC-08:00)
Language:

SL-16 R/B - Orbit

View from above orbital plane
View from above orbital plane
View from above satellite
View from above satellite

Ground track
Ground track

The orbit data is extracted from the following two-line orbital elements,

1 28353U 04021B   14328.36258667 -.00000287  00000-0 -12555-3 0  8909
2 28353 071.0013 240.9243 0005355 208.2628 290.1829 14.14102656539867
Epoch (UTC): 24 November 2014 08:42:07
Eccentricity: 0.0005355
inclination: 71.0013°
perigee height: 841 km
apogee height: 849 km
right ascension of ascending node: 240.9243°
argument of perigee: 208.2628°
revolutions per day: 14.14102656
mean anomaly at epoch: 290.1829°
orbit number at epoch: 53986

The dashed part of the orbit path shows where the satellite is in the earth's shadow,  

DLR